Skip Page Navigation
NASA JPL Caltech
NASA Logo - Jet Propulsion Laboratory + View the NASA Portal
+ Center for Near-Earth Object Studies
JPL Home Earth Solar System Stars & Galaxies Technology
JPL Solar System Dynamics
BODIES ORBITS EPHEMERIDES TOOLS PHYSICAL DATA DISCOVERY FAQ SITE MAP
JPL Small-Body Database Browser
Search: [ help ]  
24772 (1993 FL33)
Classification: Main-belt Asteroid          SPK-ID: 2024772
Ephemeris | Orbit Diagram | Orbital Elements | Mission Design | Physical Parameters | Discovery Circumstances | Close-Approach Data ]

[ show orbit diagram ]
Orbital Elements at Epoch 2459200.5 (2020-Dec-17.0) TDB
Reference: JPL 26 (heliocentric ecliptic J2000)
 Element Value Uncertainty (1-sigma)   Units 
e .1780110866424255 5.8503e-08  
a 2.461322879096719 1.0341e-08 au
q 2.023180118810849 1.3975e-07 au
i 4.37738640626054 4.5047e-06 deg
node 49.7752161436851 4.5013e-05 deg
peri 341.0344880161163 4.608e-05 deg
M 216.792126593118 9.0635e-06 deg
tp 2459761.568264769544
(2022-Jul-01.06826477)
3.6961e-05 TDB
period 1410.429262804271
3.86
8.8889e-06
2.434e-08
d
yr
n .2552414427960987 1.6086e-09 deg/d
Q 2.899465639382589 1.2182e-08 au
  Orbit Determination Parameters
   # obs. used (total)      1443  
   data-arc span      14851 days (40.66 yr)  
   first obs. used      1979-09-20  
   last obs. used      2020-05-18  
   planetary ephem.      DE441  
   SB-pert. ephem.      SB441-N16  
   condition code      0  
   norm. resid. RMS      .51944  
   source      ORB  
   producer      Otto Matic  
   solution date      2021-Apr-13 04:49:01  

Additional Information
 Earth MOID = 1.02832 au 
 Jupiter MOID = 2.53954 au 
 T_jup = 3.464 
[ show covariance matrix ]

Ephemeris | Orbit Diagram | Orbital Elements | Mission Design | Physical Parameters | Discovery Circumstances | Close-Approach Data ]

Physical Parameter Table
Parameter Symbol Value Units Sigma Reference Notes
absolute magnitude H 15.04   n/a E2021B10  
diameter diameter 3.467 km 0.162 urn:nasa:pds:neowise_diameters_albedos::2.0[mainbelt] (http://adsabs.harvard.edu/abs/2011ApJ...741...68M)  
geometric albedo albedo 0.177   0.039 urn:nasa:pds:neowise_diameters_albedos::2.0[mainbelt] (http://adsabs.harvard.edu/abs/2011ApJ...741...68M)  

24772 (1993 FL33)          Discovered 1993-Mar-19 by UESAC at La Silla
Reference: 20010606/Numbers.arcLast Updated: 2004-04-19

[ show close-approach data ]
Alternate Designations
 1993 FL33 = 1979 SJ14 
Ephemeris | Orbit Diagram | Orbital Elements | Mission Design | Physical Parameters | Discovery Circumstances | Close-Approach Data ]
ABOUT SSD CREDITS/AWARDS PRIVACY/COPYRIGHT GLOSSARY LINKS
FirstGov 2021-Jun-18 19:46 UT
(server date/time)  
NASA Home Page
Site Manager:   Ryan S. Park
Webmaster  Alan B. Chamberlin